CZ-6A DEB, 56267

Orbit data source: Space-Track

CZ-6A DEB, 56267 is space debris in SSO originally from a launch on Fri, 11 Nov 2022 UTC launched from the Taiyaun Space Center, China (TSC). Debris objects in space refer to the collection of defunct objects orbiting the Earth. Examples of debris include non-operational satellites, rocket bodies, and fragments generated from explosions, collisions, or faulty payload assembly.

Loading next visibility...
Identifier
56267, 2022-151ACK
Orbit
SSO
Country
Flag of CNCN / PRC
Related business
Manufacturer
SAST
Mission
Spacecraft
Bus & Motor
Unknown
Mass
Unknown
Launch date (UTC)
2022-11-11 (4 years ago)
Launch vehicle
Unknown
Launch site
Taiyaun Space Center, China (TSC)
Object type
Payload
Rocket body
Debris
Shape & HBR
Unknown shape, 0.1 m
Radar Cross Section
Small (<0.1 m²)

Expand to show TLE details & history
Last TLE update: 14 hours ago

TLE from 14 hours ago
0 CZ-6A DEB
1 56267U 22151ACK 26228.51078371  .00027742  00000-0  20155-2 0  9996
2 56267  98.6417 321.3409 0037138  23.1519 337.1366 15.03266972188207
Epoch: 2026-08-16T12:15Z
TLE epoch observation values (Epoch: 2026-08-16T12:15:31.712Z)
Latitude
-0.00007°
Longitude
172.55251°
Altitude
536.138 km
Speed
7.607 km/s
True Right ascension
21h 25m 21s
True Declination
0° 00' 00"
Sunlit
Object was in full shadow at epoch
Visualization orbit readout
Latitude
Unknown
Longitude
Unknown
Altitude
Unknown
Speed
Unknown
Apparent Right ascension
Unknown
Apparent Declination
Unknown
Sunlit
N/A
Visualization observer readout
Local Sidereal Time
17:06:15
Azimuth
Unknown
Elevation
Unknown
Doppler factor
Unknown
Orbital elements
Apogee altitude
579.619 km
Perigee altitude
528.131 km
Semi-major axis
6,932.012 km
Eccentricity
0.00371
Inclination
98.6417°
RAAN
321.3409°
Arg. of periapsis
23.1519°
True anomaly
336.97054°
Mean anomaly
337.1366°
Eccentric anomaly
337.05364°
Mean motion
3.76057 °/min
Orbital period
95.73 mins
BSTAR
0.0020155
Loading maneuver chart data...
Computing Atmospheric mass density...
Loading historical data...
Loading historical data...
Loading historical data...
Loading historical data...
Loading historical data...
Loading historical data...
Loading historical data...

Documentation

Showing up to 5 results
|